Hartford, CT

2:52 PM EDT on May 29, 2017 (GMT -0400)
Hartford-brainard

Weather History for KHFD - December, 2013

Change the Weather History Date:

Monday, December 16, 2013

  Actual Average Record
Temperature  
Mean Temperature 21 °F -  
Max Temperature 30 °F 40 °F 60 °F (1971)
Min Temperature 12 °F 23 °F 2 °F (1930)
Degree Days  
Heating Degree Days 44    
Moisture  
Dew Point 12 °F    
Average Humidity 55    
Maximum Humidity 80    
Minimum Humidity 35    
Precipitation  
Precipitation 0.00 in - - ()
Sea Level Pressure  
Sea Level Pressure 30.02 in    
Wind  
Wind Speed 7 mph (West)    
Max Wind Speed 15 mph    
Max Gust Speed 23 mph    
Visibility 10 miles    
Events Snow    
Averages and records for this station are not official NWS values.
T = Trace of Precipitation, MM = Missing Value Source: NWS Daily Summary

Daily Weather History Graph

Daily Weather History Graph

Search for Another Location

Airport or City:

Trip Planner

Search our weather history database for the weather conditions in past years. The results will help you decide how hot, cold, wet, or windy it might be!

Date:

Astronomy

Dec. 16, 2013 Rise Set
Actual Time 7:11 AM EST 4:21 PM EST
Civil Twilight 6:40 AM EST 4:52 PM EST
Nautical Twilight 6:04 AM EST 5:27 PM EST
Astronomical Twilight 5:31 AM EST 6:01 PM EST
Moon 4:10 PM EST (12/16) 6:16 AM EST (12/16)
Length of Visible Light 10h 12m
Length of Day
9h 09m
Full, 100% of the Moon is Illuminated
Dec 16
Full
Dec 17
Full
Dec 25
Last Quarter
Jan 1
New
Jan 7
First Quarter

Hourly Weather History & Observations

Time (EST) Temp. Windchill Dew Point Humidity Pressure Visibility Wind Dir Wind Speed Gust Speed Precip Events Conditions
12:53 AM 28.9 °F 22.8 °F 19.9 °F 69% 29.78 in 10.0 mi SSW 5.8 mph - N/A   Scattered Clouds
1:53 AM 30.0 °F 23.2 °F 19.9 °F 66% 29.80 in 10.0 mi SW 6.9 mph - N/A   Partly Cloudy
2:53 AM 30.0 °F 22.4 °F 19.0 °F 64% 29.82 in 10.0 mi SSW 8.1 mph - N/A   Scattered Clouds
3:53 AM 30.0 °F 24.1 °F 19.0 °F 64% 29.83 in 10.0 mi WSW 5.8 mph - N/A   Partly Cloudy
4:50 AM 28.4 °F 18.5 °F 19.4 °F 69% 29.87 in 7.0 mi NW 11.5 mph - 0.00 in Snow Light Snow
4:53 AM 28.9 °F 18.6 °F 19.9 °F 69% 29.88 in 6.0 mi WNW 12.7 mph 17.3 mph 0.00 in Snow Light Snow
5:19 AM 28.0 °F 20.8 °F 19.9 °F 72% 29.89 in 9.0 mi WNW 6.9 mph - 0.00 in   Overcast
5:53 AM 28.0 °F 22.8 °F 19.9 °F 72% 29.91 in 10.0 mi WNW 4.6 mph - 0.00 in   Mostly Cloudy
6:53 AM 27.0 °F 20.5 °F 16.0 °F 63% 29.94 in 10.0 mi West 5.8 mph - N/A   Clear
7:53 AM 26.1 °F 19.4 °F 14.0 °F 60% 29.98 in 10.0 mi NW 5.8 mph - N/A   Clear
8:53 AM 27.0 °F 18.7 °F 9.0 °F 47% 30.01 in 10.0 mi WNW 8.1 mph - N/A   Clear
9:53 AM 28.0 °F 17.5 °F 9.0 °F 45% 30.03 in 10.0 mi West 12.7 mph 18.4 mph N/A   Clear
10:53 AM 28.9 °F 20.4 °F 9.0 °F 43% 30.02 in 10.0 mi West 9.2 mph - N/A   Clear
11:53 AM 30.0 °F 22.4 °F 7.0 °F 38% 30.01 in 10.0 mi WNW 8.1 mph - N/A   Clear
12:53 PM 30.0 °F 22.4 °F 7.0 °F 38% 30.02 in 10.0 mi West 8.1 mph 17.3 mph N/A   Clear
1:53 PM 30.9 °F 21.7 °F 6.1 °F 35% 30.02 in 10.0 mi West 11.5 mph 17.3 mph N/A   Partly Cloudy
2:53 PM 30.0 °F 19.1 °F 5.0 °F 35% 30.05 in 10.0 mi NW 15.0 mph 23.0 mph N/A   Clear
3:53 PM 28.9 °F 21.9 °F 5.0 °F 36% 30.08 in 10.0 mi WNW 6.9 mph - N/A   Clear
4:53 PM 27.0 °F 20.5 °F 6.1 °F 41% 30.11 in 10.0 mi WNW 5.8 mph - N/A   Partly Cloudy
5:53 PM 26.1 °F 20.5 °F 6.1 °F 43% 30.13 in 10.0 mi WSW 4.6 mph - N/A   Clear
6:53 PM 25.0 °F 19.3 °F 7.0 °F 46% 30.17 in 10.0 mi WSW 4.6 mph - N/A   Clear
7:53 PM 24.1 °F 19.7 °F 8.1 °F 51% 30.19 in 10.0 mi West 3.5 mph - N/A   Clear
8:53 PM 21.9 °F 17.2 °F 8.1 °F 55% 30.21 in 10.0 mi West 3.5 mph - N/A   Clear
9:53 PM 21.0 °F - 8.1 °F 57% 30.22 in 10.0 mi Calm Calm - N/A   Clear
10:53 PM 12.0 °F 5.9 °F 7.0 °F 80% 30.23 in 10.0 mi ENE 3.5 mph - N/A   Clear
11:53 PM 14.0 °F 8.2 °F 9.0 °F 80% 30.24 in 8.0 mi SSE 3.5 mph - N/A   Clear